User: anonymous   Login
Location: Lake Superior Provincial Park
(47.3335°N, 84.6162°W)
Time: 08:15:35
(UTC-05:00)
Language:

Cosmos 2333 Rocket - Orbit

View from above orbital plane
View from above orbital plane
View from above satellite
View from above satellite

Ground track
Ground track

The orbit data is extracted from the following two-line orbital elements,

1 24298U 96051B   17020.42605961  .00000056  00000-0  56489-4 0  9996
2 24298  70.8457  13.4883 0012750  36.1741 324.0239 14.12472568 50954
Epoch (UTC): 20 January 2017 10:13:31
Eccentricity: 0.0012750
inclination: 70.8457°
perigee height: 842 km
apogee height: 860 km
right ascension of ascending node: 13.4883°
argument of perigee: 36.1741°
revolutions per day: 14.12472568
mean anomaly at epoch: 324.0239°
orbit number at epoch: 5095

The dashed part of the orbit path shows where the satellite is in the earth's shadow,  

DLR